Date String (YYYY-MM-DD hh:mm:ss) UTC,Instrument flags,absolute air pressure of the measurement (hPa),sample flow rate (lpm),inlet stack bypass flow (lpm),air temperature of the measurement (°C),ambient temperature measured by the external sensor (°C),aerosol sample conditioner tube jacket temperature (°C),OPC LED temperature (°C),internal box temperature (°C),relative humidity of the measurement (%),span deviation,mass concentration of particles derived from Lorenz-Mie calculation of OPC scattering (μg/m³),mass concentration of particles derived from Lorenz-Mie calculation of OPC scattering (μg/m³),mass concentration of particles derived from Lorenz-Mie calculation of OPC scattering (μg/m³)
DateTimeUTC,F1_M11,P_M11,Q1_M11,Q2_M11,T1_M11,T2_M11,T3_M11,T4_M11,T5_M11,U1_M11,ZSPAN_M11,X0_M11,X2_M11,X1_M11
2023-07-20 12:00:00,SystemResetWarning,0837.7,5.00,000.00,029.8,028.4,000.0,038.3,031.4,33.9,0000.0,0005.34,0002.04,0001.27
2023-07-20 12:01:00,SystemResetWarning,0837.7,5.00,000.00,029.8,028.4,000.0,038.3,031.4,34.0,0000.0,0005.17,0001.98,0001.26
2023-07-20 12:02:00,SystemResetWarning,0837.7,5.00,000.00,029.8,028.4,000.0,038.3,031.4,34.2,0000.0,0005.27,0002.00,0001.24
2023-07-20 12:03:00,SystemResetWarning,0837.7,5.00,000.00,029.8,028.4,000.0,038.3,031.4,34.0,0000.0,0005.31,0001.98,0001.23
2023-07-20 12:04:00,SystemResetWarning,0837.7,5.00,000.00,029.8,028.4,000.0,038.3,031.4,33.9,0000.0,0004.48,0002.03,0001.22
2023-07-20 12:05:00,SystemResetWarning,0837.6,5.00,000.00,029.8,028.5,000.0,038.3,031.4,33.8,0000.0,0003.88,0002.07,0001.23
2023-07-20 12:06:00,SystemResetWarning,0837.6,5.00,000.00,029.9,028.4,000.0,038.3,031.4,34.0,0000.0,0003.80,0002.07,0001.23
2023-07-20 12:07:00,SystemResetWarning,0837.6,5.01,000.00,029.9,028.4,000.0,038.3,031.4,34.0,0000.0,0003.78,0002.05,0001.23
2023-07-20 12:08:00,SystemResetWarning,0837.6,5.00,000.00,029.9,028.4,000.0,038.3,031.4,34.1,0000.0,0003.70,0002.04,0001.24
2023-07-20 12:09:00,SystemResetWarning,0837.6,5.00,000.00,029.9,028.4,000.0,038.3,031.4,34.3,0000.0,0003.76,0002.02,0001.25
2023-07-20 12:10:00,SystemResetWarning,0837.6,5.00,000.00,029.9,028.5,000.0,038.4,031.4,34.3,0000.0,0003.95,0002.05,0001.26
2023-07-20 12:11:00,SystemResetWarning,0837.5,5.01,000.00,029.9,028.5,000.0,038.4,031.4,34.3,0000.0,0003.99,0002.06,0001.27
2023-07-20 12:12:00,SystemResetWarning,0837.4,5.00,000.00,029.9,028.5,000.0,038.4,031.4,34.0,0000.0,0004.57,0002.13,0001.29
2023-07-20 12:13:00,SystemResetWarning,0837.5,5.00,000.00,029.9,028.6,000.0,038.4,031.4,33.5,0000.0,0004.57,0002.13,0001.28
2023-07-20 12:14:00,SystemResetWarning,0837.6,5.00,000.00,029.9,028.6,000.0,038.4,031.5,33.5,0000.0,0004.39,0002.08,0001.29
2023-07-20 12:15:00,SystemResetWarning,0837.7,4.98,000.00,029.9,027.7,000.0,038.3,031.4,33.8,0000.0,0004.36,0002.04,0001.29
2023-07-20 12:16:00,SystemResetWarning,0837.6,5.01,000.00,029.8,025.9,000.0,038.2,031.1,33.9,0000.0,0004.45,0002.08,0001.31
2023-07-20 12:17:00,SystemResetWarning,0837.5,5.01,000.00,029.7,025.2,000.0,038.1,030.9,33.9,0000.0,0004.68,0002.17,0001.33
2023-07-20 12:18:00,SystemResetWarning,0837.3,5.00,000.00,029.6,025.3,000.0,038.1,030.6,34.4,0000.0,0005.24,0002.27,0001.33
2023-07-20 12:19:00,SystemResetWarning,0837.2,5.00,000.00,029.5,025.7,000.0,038.1,030.6,34.7,0000.0,0005.35,0002.28,0001.32
2023-07-20 12:20:00,SystemResetWarning,0837.2,5.00,000.00,029.5,026.1,000.0,038.1,030.7,34.1,0000.0,0005.22,0002.32,0001.32
2023-07-20 12:21:00,SystemResetWarning,0837.2,5.00,000.00,029.4,026.5,000.0,038.1,030.8,33.6,0000.0,0005.13,0002.31,0001.31
2023-07-20 12:22:00,SystemResetWarning,0837.2,5.00,000.00,029.4,026.8,000.0,038.1,030.8,33.9,0000.0,0005.25,0002.37,0001.32
2023-07-20 12:23:00,SystemResetWarning,0837.2,4.97,000.00,029.4,027.1,000.0,038.1,030.9,35.3,0000.0,0004.89,0002.38,0001.31
2023-07-20 12:24:00,SystemResetWarning,0837.3,5.03,000.00,029.6,027.3,000.0,038.1,031.0,35.3,0000.0,0004.85,0002.36,0001.32
2023-07-20 12:25:00,SystemResetWarning,0837.4,4.98,000.00,029.9,027.5,000.0,038.0,031.1,34.7,0000.0,0005.09,0002.42,0001.33
2023-07-20 12:26:00,SystemResetWarning,0837.5,5.00,000.00,030.0,027.6,000.0,038.1,031.2,34.3,0000.0,0005.04,0002.42,0001.34
2023-07-20 12:27:00,SystemResetWarning,0837.6,5.01,000.00,030.1,027.7,000.0,038.1,031.2,33.9,0000.0,0004.80,0002.33,0001.33
2023-07-20 12:28:00,SystemResetWarning,0837.6,4.98,000.00,030.2,027.9,000.0,038.1,031.2,33.8,0000.0,0004.62,0002.26,0001.32
2023-07-20 12:29:00,SystemResetWarning,0837.6,4.99,000.00,030.3,027.9,000.0,038.2,031.2,33.6,0000.0,0004.20,0002.18,0001.33
2023-07-20 12:30:00,SystemResetWarning,0837.6,5.01,000.00,030.3,028.0,000.0,038.3,031.3,33.5,0000.0,0004.01,0002.18,0001.34
2023-07-20 12:31:00,SystemResetWarning,0837.6,5.00,000.00,030.3,028.1,000.0,038.3,031.3,33.2,0000.0,0004.06,0002.19,0001.35
2023-07-20 12:32:00,SystemResetWarning,0837.6,4.99,000.00,030.4,028.2,000.0,038.4,031.3,33.2,0000.0,0003.99,0002.19,0001.34
2023-07-20 12:33:00,SystemResetWarning,0837.7,4.99,000.00,030.4,028.2,000.0,038.4,031.3,32.9,0000.0,0003.80,0002.10,0001.31
2023-07-20 12:34:00,SystemResetWarning,0837.7,5.00,000.00,030.4,028.2,000.0,038.5,031.3,32.8,0000.0,0003.69,0002.02,0001.28
2023-07-20 12:35:00,SystemResetWarning,0837.7,5.00,000.00,030.4,028.3,000.0,038.5,031.4,32.8,0000.0,0003.49,0001.99,0001.26
2023-07-20 12:36:00,SystemResetWarning,0837.7,5.00,000.00,030.4,028.3,000.0,038.5,031.4,32.9,0000.0,0003.24,0001.93,0001.25
2023-07-20 12:37:00,SystemResetWarning,0837.8,5.01,000.00,030.4,028.3,000.0,038.5,031.4,33.1,0000.0,0003.27,0001.92,0001.24
2023-07-20 12:38:00,SystemResetWarning,0837.7,5.01,000.00,030.4,028.3,000.0,038.6,031.4,33.5,0000.0,0003.35,0001.96,0001.24
2023-07-20 12:39:00,SystemResetWarning,0837.7,5.00,000.00,030.4,028.3,000.0,038.6,031.4,33.4,0000.0,0003.41,0001.98,0001.22
2023-07-20 12:40:00,SystemResetWarning,0837.7,5.01,000.00,030.4,028.4,000.0,038.6,031.4,33.3,0000.0,0003.81,0001.99,0001.21
2023-07-20 12:41:00,SystemResetWarning,0837.7,5.00,000.00,030.4,028.3,000.0,038.6,031.5,33.3,0000.0,0004.24,0001.99,0001.20
2023-07-20 12:42:00,SystemResetWarning,0837.7,4.99,000.00,030.4,028.3,000.0,038.6,031.5,33.2,0000.0,0004.24,0001.99,0001.18
2023-07-20 12:43:00,SystemResetWarning,0837.8,4.99,000.00,030.4,028.3,000.0,038.6,031.5,33.0,0000.0,0004.43,0002.03,0001.18
2023-07-20 12:44:00,SystemResetWarning,0837.8,5.00,000.00,030.4,028.3,000.0,038.6,031.5,33.0,0000.0,0004.57,0002.08,0001.20
2023-07-20 12:45:00,SystemResetWarning,0837.8,5.01,000.00,030.4,028.3,000.0,038.7,031.5,33.1,0000.0,0004.62,0002.13,0001.20
2023-07-20 12:46:00,SystemResetWarning,0837.8,5.01,000.00,030.4,028.3,000.0,038.7,031.5,33.2,0000.0,0004.64,0002.14,0001.20
2023-07-20 12:47:00,SystemResetWarning,0837.8,5.00,000.00,030.4,028.3,000.0,038.7,031.4,33.1,0000.0,0004.64,0002.14,0001.20
2023-07-20 12:48:00,SystemResetWarning,0837.8,4.99,000.00,030.3,028.3,000.0,038.7,031.4,33.2,0000.0,0004.56,0002.11,0001.20
2023-07-20 12:49:00,SystemResetWarning,0837.8,5.00,000.00,030.3,028.3,000.0,038.7,031.4,33.5,0000.0,0004.73,0002.11,0001.20
2023-07-20 12:50:00,SystemResetWarning,0837.8,4.99,000.00,030.3,028.3,000.0,038.7,031.4,33.7,0000.0,0004.76,0002.11,0001.22
2023-07-20 12:51:00,SystemResetWarning,0837.8,5.00,000.00,030.3,028.3,000.0,038.7,031.4,34.1,0000.0,0004.73,0002.14,0001.23
2023-07-20 12:52:00,SystemResetWarning,0837.8,5.00,000.00,030.3,028.3,000.0,038.7,031.4,34.3,0000.0,0004.17,0002.14,0001.23
2023-07-20 12:53:00,SystemResetWarning,0837.8,5.00,000.00,030.3,028.3,000.0,038.7,031.4,34.2,0000.0,0004.08,0002.09,0001.23
2023-07-20 12:54:00,SystemResetWarning,0837.8,5.00,000.00,030.3,028.3,000.0,038.7,031.5,34.0,0000.0,0003.94,0002.05,0001.23
2023-07-20 12:55:00,SystemResetWarning,0837.8,5.01,000.00,030.2,028.3,000.0,038.7,031.4,33.9,0000.0,0003.77,0001.99,0001.22
2023-07-20 12:56:00,SystemResetWarning,0837.8,5.01,000.00,030.2,028.3,000.0,038.7,031.4,33.9,0000.0,0003.79,0001.99,0001.23
2023-07-20 12:57:00,SystemResetWarning,0837.8,4.99,000.00,030.2,028.3,000.0,038.7,031.4,33.8,0000.0,0003.80,0001.96,0001.22
2023-07-20 12:58:00,SystemResetWarning,0837.7,5.00,000.00,030.2,028.3,000.0,038.7,031.4,33.7,0000.0,0003.95,0001.94,0001.22
2023-07-20 12:59:00,SystemResetWarning,0837.7,4.99,000.00,030.2,028.3,000.0,038.6,031.4,33.8,0000.0,0004.23,0002.00,0001.22
